San Jose, Costa Rica

7:24 AM CST on May 27, 2017 (GMT -0600)
Juan Santamaria International

Weather History for MROC - March, 2014

Change the Weather History Date:

Friday, March 21, 2014

  Actual Average Record
Temperature  
Mean Temperature 76 °F -  
Max Temperature 84 °F 83 °F 91 °F (1998)
Min Temperature 68 °F 65 °F 61 °F (2015)
Cooling Degree Days 11    
Growing Degree Days 26 (Base 50)    
Moisture  
Dew Point 55 °F    
Average Humidity 49    
Maximum Humidity 95    
Minimum Humidity 23    
Precipitation  
Precipitation 0.00 in 0.08 in - ()
Sea Level Pressure  
Sea Level Pressure 29.96 in    
Wind  
Wind Speed 13 mph ()    
Max Wind Speed 22 mph    
Max Gust Speed 34 mph    
Visibility 8.9 miles    
Events      
Averages and records for this station are not official NWS values.
T = Trace of Precipitation, MM = Missing Value Source: Averaged Metar Reports

Daily Weather History Graph

Daily Weather History Graph

Search for Another Location

Airport or City:

Trip Planner

Search our weather history database for the weather conditions in past years. The results will help you decide how hot, cold, wet, or windy it might be!

Date:

Astronomy

Mar. 21, 2014 Rise Set
Actual Time 5:40 AM CST 5:47 PM CST
Civil Twilight 5:19 AM CST 6:08 PM CST
Nautical Twilight 4:55 AM CST 6:33 PM CST
Astronomical Twilight 4:30 AM CST 6:57 PM CST
Moon 10:15 PM CST (3/21) 9:20 AM CST (3/21)
Length of Visible Light 12h 49m
Length of Day
12h 07m
Waning Gibbous, 75% of the Moon is Illuminated
Mar 21
Waning Gibbous
Mar 23
Last Quarter
Mar 30
New
Apr 7
First Quarter
Apr 15
Full

Hourly Weather History & Observations

Time (CST) Temp. Heat Index Dew Point Humidity Pressure Visibility Wind Dir Wind Speed Gust Speed Precip Events Conditions
12:00 AM 71 °F - 59 °F 58% 29.81 in 12 mi ESE 13.8 mph - -  
12:00 AM 69.8 °F - 59.0 °F 68% 29.98 in - ESE 13.8 mph 25.3 mph N/A   Clear
1:00 AM 69.8 °F - 59.0 °F 68% 29.97 in - ESE 12.7 mph 26.5 mph N/A   Clear
2:00 AM 69.8 °F - 57.2 °F 64% 29.95 in - ESE 13.8 mph 25.3 mph N/A   Clear
3:00 AM 69 °F - 57 °F 57% 29.79 in 12 mi ESE 11.5 mph - -  
3:00 AM 69.8 °F - 57.2 °F 64% 29.95 in - ESE 11.5 mph 23.0 mph N/A   Clear
5:00 AM 69.8 °F - 59.0 °F 68% 29.96 in - East 13.8 mph 28.8 mph N/A   Clear
6:00 AM 70 °F - 57 °F 54% 29.84 in 12 mi East 15.0 mph - -   Scattered Clouds
6:00 AM 69.8 °F - 57.2 °F 64% 29.98 in 6.2 mi East 15.0 mph 26.5 mph N/A   Partly Cloudy
7:00 AM 73.4 °F - 55.4 °F 53% 29.99 in - ESE 12.7 mph 24.2 mph N/A   Clear
8:00 AM 77.0 °F - 55.4 °F 47% 30.02 in - East 13.8 mph 26.5 mph N/A   Clear
9:00 AM 76 °F - 75 °F 95% 29.89 in 12 mi East 18.4 mph - -   Scattered Clouds
9:00 AM 77.0 °F - 57.2 °F 50% 30.03 in 6.2 mi East 18.4 mph 29.9 mph N/A   Partly Cloudy
10:00 AM 80.6 °F 80.3 °F 53.6 °F 39% 30.03 in 6.2 mi ENE 21.9 mph 33.4 mph N/A   Partly Cloudy
11:00 AM 82.4 °F 81.4 °F 53.6 °F 37% 30.02 in 6.2 mi ENE 17.3 mph 28.8 mph N/A   Partly Cloudy
12:00 PM 84 °F - 56 °F 28% 29.83 in 12 mi ENE 17.3 mph - -   Scattered Clouds
12:00 PM 84.2 °F 83.0 °F 55.4 °F 37% 30.00 in 6.2 mi ENE 17.3 mph 28.8 mph N/A   Partly Cloudy
1:00 PM 80.6 °F 80.8 °F 57.2 °F 45% 29.97 in 6.2 mi ENE 20.7 mph 32.2 mph N/A   Partly Cloudy
2:00 PM 78.8 °F - 55.4 °F 44% 29.97 in 6.2 mi East 18.4 mph 31.1 mph N/A   Scattered Clouds
3:00 PM 80 °F - 48 °F 23% 29.81 in 12 mi East 17.3 mph - -   Scattered Clouds
3:00 PM 80.6 °F - 48.2 °F 32% 29.95 in 6.2 mi East 17.3 mph 34.5 mph N/A   Partly Cloudy
4:00 PM 77.0 °F - 44.6 °F 32% 29.96 in - East 16.1 mph 33.4 mph N/A   Clear
5:00 PM 77.0 °F - 44.6 °F 32% 29.97 in 6.2 mi East 17.3 mph 28.8 mph N/A   Partly Cloudy
6:00 PM 73 °F - 50 °F 34% 29.86 in 12 mi East 17.3 mph - -   Clear
6:00 PM 73.4 °F - 50.0 °F 44% 30.00 in - East 17.3 mph 28.8 mph N/A   Clear
7:00 PM 71.6 °F - 53.6 °F 53% 30.01 in - East 11.5 mph 23.0 mph N/A   Clear
8:00 PM 71.6 °F - 53.6 °F 53% 30.03 in - ENE 15.0 mph 26.5 mph N/A   Clear
9:00 PM 71 °F - 52 °F 41% 29.91 in 12 mi East 11.5 mph - -  
9:00 PM 71.6 °F - 51.8 °F 50% 30.05 in - East 11.5 mph - N/A   Clear
10:00 PM 71.6 °F - 50.0 °F 46% 30.05 in - East 11.5 mph 23.0 mph N/A   Clear
11:00 PM 71.6 °F - 51.8 °F 50% 30.05 in - East 9.2 mph 20.7 mph N/A   Clear